Regional Weather Roundup
Issued by NWS Charleston, SC

Current Version | Previous Version | Text Only | Print | Product List | Glossary Off
Versions: 1 2 3 4 5 6 7 8 9 10 11 12 13 14 15 16 17 18 19 20 21 22 23 24 25 26 27 28 29 30 31 32 33 34 35 36 37 38 39 40 41 42 43 44 45 46 47 48 49 50

000
ASUS42 KCHS 202226
RWRCHS

REGIONAL WEATHER ROUNDUP
NATIONAL WEATHER SERVICE CHARLESTON SC
600 PM EDT MON APR 20 2015

NOTE: "FAIR" INDICATES FEW OR NO CLOUDS BELOW 12,000 FEET WITH NO
SIGNIFICANT WEATHER AND/OR OBSTRUCTIONS TO VISIBILITY.

NOT ALL STATIONS ARE QUALITY CONTROLLED BY THE NATIONAL
WEATHER SERVICE. USE DATA WITH CAUTION...ESPECIALLY
DEWPOINT OBSERVATIONS.

SCZ027-030-031-034>040-042>050-202300-
...SOUTHEAST SOUTH CAROLINA...

CITY           SKY/WX    TMP DP  RH WIND       PRES   REMARKS
N CHARLESTON   CLOUDY    71  65  81 S7        29.75F
WATERFRONT PRK   N/A     72 N/A N/A SW12        N/A
MOUNT PLEASANT FAIR      70  66  88 CALM      29.76R
PINOPOLIS      NOT AVBL
MONCKS CORNER  FAIR      72  64  78 SW5       29.74S
SUMMERVILLE    FAIR      70  68  94 S3        29.75S
BEAUFORT MCAS  CLOUDY    72  66  81 SW5       29.74F
BEAUFORT ARPT  FAIR      72  66  83 CALM      29.75R
HILTON HEAD IS CLOUDY    73  66  78 SW9G17    29.74F
WALTERBORO     LGT RAIN  70  64  83 S7        29.75F
ALLENDALE      FAIR      72  66  83 S6        29.72F

...SOUTHERN MIDLANDS AND PEE DEE...

CITY           SKY/WX    TMP DP  RH WIND       PRES   REMARKS
GEORGETOWN     NOT AVBL
KINGSTREE      NOT AVBL
ORANGEBURG     CLOUDY    70  64  81 S7        29.72F
BARNWELL       FAIR      72  66  83 SW9       29.72F
AIKEN          FAIR      70  61  73 SW15      29.74S
MANNING        FAIR      70  63  78 S6        29.72F
COLUMBIA       CLOUDY    73  63  70 SW10      29.70F
SUMTER         CLOUDY    70  64  83 S8        29.70F
FLORENCE       CLOUDY    72  63  73 SW10      29.72R
MYRTLE BEACH   MOSUNNY   70  63  78 S21       29.76S
N MYRTLE BEACH CLOUDY    68  64  87 SW18G28   29.75R

$$

GAZ063-065-086>088-099>101-113>116-118-119-134>141-150-202300-
...SOUTHEAST GEORGIA...

CITY           SKY/WX    TMP DP  RH WIND       PRES   REMARKS
SAVANNAH ARPT  CLOUDY    72  62  71 W13       29.76S
HUNTER AAF     CLOUDY    73  64  74 SW9G18    29.74S
FORT STEWART   PTSUNNY   73  64  73 SW9       29.75S
STATESBORO       N/A     71  62  73 SW12G17   29.74F
SYLVANIA       CLOUDY    71  64  80 SW8       29.74F
CLAXTON        FAIR      70  63  78 W6        29.76F

...CSRA...CENTRAL AND FAR SOUTHEAST GEORGIA...

CITY           SKY/WX    TMP DP  RH WIND       PRES   REMARKS
THOMSON        CLOUDY    76  63  63 SW7G20    29.74S
AUGUSTA-BUSH   CLOUDY    72  64  76 SW12      29.70F
AUGUSTA-DANIEL CLOUDY    74  62  66 SW13G21   29.71F
SWAINSBORO     NOT AVBL
VIDALIA        CLOUDY    70  63  78 SW9       29.76F
EASTMAN        FAIR      72  63  73 SW10      29.77F
HAZLEHURST     FAIR      71  62  73 SW5       29.77F
ALMA           CLOUDY    68  60  75 SW5       29.77F
WAYCROSS       CLOUDY    72  62  71 W6        29.79S
JESUP          FAIR      72  63  73 W3        29.80R
BAXLEY         FAIR      70  63  78 CALM      29.76F
BRUNSWICK      CLOUDY    72  55  56 S16G28    29.77F
SAINT SIMONS   LGT RAIN  69  58  67 SW22G29   29.84R

$$

SCZ027-028-034-036>038-045-046-048>050-GAZ119-141-202300-
...LAKE AND SUPPLEMENTAL COASTAL OBSERVATIONS...

STATION/POSITION TIME  TEMP    WIND        PRES    WAVE   SWELL
                       AIR SEA DIR/SP/G            HT/PER HT/PER/DIR
                 (UTC) (F)     (DEG/KT/KT) (MB)    (FT/S) (FT/S/D)
UPR LAKE MARION  NOT AVBL
WINYAH BAY       NOT AVBL
LAKE MURRAY      2100   71     220/ 12/ 15 1005.4S
ACE BASIN NERRS  NOT AVBL
FORT PULASKI     2200   72 72  220/  8/ 16 1007.4F
SAPELO ISLAND    NOT AVBL

$$

ANZ835-935-AMZ111-154-330-350-352-354-370-450-454-472-202300-
...C-MAN AND BUOY OBSERVATIONS...

STATION/POSITION TIME  TEMP    WIND        PRES    WAVE   SWELL
                       AIR SEA DIR/SP/G            HT/PER HT/PER/DIR
                 (UTC) (F)     (DEG/KT/KT) (MB)    (FT/S) (FT/S/D)
BUOY 41004       2150   72 74  210/ 19/ 23 1007.5F   4/ 5   2/ 8
BUOY 41008       2150   73 69  210/ 17/ 21 1008.9F   2/13   2/190/13
FOLLY BEACH CMAN 2200   69     200/ 10/ 12 1007.4F
CAPERS NEARSHORE NOT AVBL
FRIPP NEARSHORE  NOT AVBL


STATION/POSITION TIME  TEMP    WIND        PRES    WAVE   SWELL
                       AIR SEA DIR/SP/G            HT/PER HT/PER/DIR
                 (UTC) (F)     (DEG/KT/KT) (MB)    (FT/S) (FT/S/D)
5E ST. MARYS GA  2121      70                N/A     3/13   2/ 90/13
FRYING PAN BUOY  2150   74 73  200/ 17/ 21 1008.1F   4/ 5   2/140/ 9
BUOY 41025       2150   72 73  210/ 17/ 21 1007.5F   6/ 7   3/130/ 7
CAPE LOOKOUT NC  2200   68     200/ 10/ 14 1007.6R
BUOY 41002       2150   74 73  210/ 16/ 19 1011.5F   4/14   2/360/14
BUOY 41010       2120   79 79  210/ 12/ 14 1011.3R
ST AUGUSTINE FL  2200   66 65  300/ 10/ 13 1013.0F


$$



USA.gov is the U.S. government's official web portal to all federal, state and local government web resources and services.